Погода в Светлограде

Погода в Светлограде : погода сейчас, прогноз погоды и архив. Всё, что Вы хотите узнать о погоде в Светлограде!

Хотите узнать прогноз погоды в Светлограде? Тогда Вам сюда: Погода в Светлограде

Поиск расширенной информации на нашем сайте:

Другие новости

Новости СМИ2

Главная страница сайта

Новости сайта

03.07.2017

Напоминаем, что на нашем специализированном сайте Метеоцентр.Азия вы можете получить высокодетализированные автоматические прогнозы погоды по пунктам России, СНГ и мира в авиационном формате (включающие направление и скорость ветра, видимость, явления погоды, количество и форму облачности, нижнюю и верхнюю границу облачности).


Погода в Светлограде - сегодня

Время (UTC), дата Ветер
(°,м/с) 
Видим.   Явления Облачность Т
(°С)
Тd
(°С)
f(%) Тe
(°С)
Pmin
(гПа)
dP
(гПа)
Po
(мм)
O2
(г/м3)
Тmin Tmax R s Состояние
почвы
06 15.08.17 090 (В) 20000 м    10/4 1000 м верхняя 
[Cu hum|Ci]
+28.4 +12 36 +32  1012.9  0.6  748  271           
09 15.08.17 110 (В) 20000 м    8/3 1000 м верхняя 
[Cu hum|Cc]
+31.3 +9.3 26 +32  1012.9  0.2  748  269           
12 15.08.17 110 (В) 20000 м    6/3 1000 м верхняя 
[Cu hum|Ci fib]
+31.1 +10.3 28 +33  1012.6  -0.3  748  269           
15 15.08.17 140 (ЮВ) 20000 м    10/0 верхняя 
[Ci]
+27.9 +10 33 +29  1013.8  748  272    +31.6       
18 15.08.17 170 (Ю) 20000 м    8/0 верхняя 
[Ci fib]
+21.6 +11.3 52 +25  1014.3  0.2  749  277           
21 15.08.17 тихо ()   20000 м    ясно 
+18.7 +10.6 59 +21  1014.6  -0.1  749  280           
00 16.08.17 тихо ()   20000 м    3/0 верхняя 
[Ci fib]
+16.9 +10.7 67 +19  1014.6  0.1  749  282           
03 16.08.17 тихо ()   20000 м    3/0 верхняя 
[Ci sp]
+15.2 +11.3 78 +18  1015.2  0.5  749  284  +14.5        сухая 
06 16.08.17 080 (В) 20000 м    3/0 верхняя 
[Ci fib]
+27.2 +11.4 37 +30  1014.5  0.1  749  272           
09 16.08.17 100 (В) 20000 м    3/0 верхняя 
[Ci fib]
+30.8 +7.3 23 +31  1013.6  -0.7  748  270           
12 16.08.17 070 (В) 20000 м    4/4 1000 м 
[Cu hum]
+32.4 +5.3 18 +32  1012.5  -1  748  268           
15 16.08.17 100 (В) 20000 м    6/6 1000 м 
[Cu med, cong]
+31.6 +5.1 19 +32  1012.5  748  269    +33       
18 16.08.17 080 (В) 20000 м    ясно 
+24 +8.8 38 +24  1013.8  748  276           
21 16.08.17 090 (В) 20000 м    ясно 
+22 +7 38 +22  1013.9  748  278           
00 17.08.17 120 (ЮВ) 20000 м    ясно 
+19.3 +10.7 57 +23  1013.6  -0.4  748  280           
03 17.08.17 110 (В) 20000 м    6/4 1000 м верхняя 
[Cu hum|Ci fib]
+19.1 +13.2 69 +27  1014  0.3  748  279  +17.9        сухая 
06 17.08.17 050 (СВ) 20000 м    3/1 1000 м верхняя 
[Cu hum|Ci fib]
+26.3 +14.7 49 +35  1013.2  -0.3  748  272           
09 17.08.17 080 (В) 4-11{12}  20000 м    4/3 600 м верхняя 
[Cu hum|Ci fib]
+31.2 +8.9 25 +31  1011.8  -1.2  747  269           
12 17.08.17 070 (В) 3{13}  20000 м    8/6 600 м верхняя 
[Sc diur, vesp|Ci fib]
+33.2 +4.9 17 +33  1010.4  -1.3  746  267           
15 17.08.17 080 (В) 3{14}  20000 м    8/3 600 м верхняя 
[Sc|Ci fib]
+31.2 +7.8 23 +31  1010.8  0.4  746  269    +33.8       
18 17.08.17 080 (В) 3{10}  20000 м    10/8 600 м верхняя 
[Sc|Ci fib]
+28.4 +6.3 25 +28  1012.9  1.9  748  272           
21 17.08.17 080 (В) 20000 м    10/10 600 м 
[Sc]
+25.3 +11.8 43 +29  1013.3  0.3  748  274           
00 18.08.17 тихо ()   20000 м    6/4 600 м верхняя 
[Sc|Ci fib]
+20.5 +12 58 +24  1013.7  0.2  748  278           
03 18.08.17 110 (В) 20000 м    8/4 600 м верхняя 
[Sc|Ci fib]
+20.1 +12.8 63 +25  1014.4  0.6  748  278  +20        сухая 
06 18.08.17 040 (СВ) 20000 м    8/4 1000 м верхняя 
[Cu hum|Cc]
+25.1 +12.2 45 +29  1014.9  0.7  749  274  +19.9         
Время (UTC), дата Ветер
(°,м/с) 
Видим.   Явления Облачность Т
(°С)
Тd
(°С)
f(%) Тe
(°С)
Pmin
(гПа)
dP
(гПа)
Po
(мм)
O2
(г/м3)
Тmin Tmax R s Состояние
почвы

Для получения пояснительной информации подведите курсор к названию столбца.

ПОГОДА в Светлограде - архив

Всё, что Вы хотите узнать о погоде в Светлограде - удобно и подробно!

Выберите нужную дату (начиная с 1 января 2015* года) и нажмите кнопку "Найти".
Будут отображены архивные сводки погоды по пункту Светлоград, начиная с указанной даты.


Отображать данные в формате CSV (для использования в таблицах Excel)


Внимание! Наш архив погоды предназначен исключительно для личного некоммерческого использования в познавательных целях. Если Вам необходимы официальные справки о состоянии погоды (для производственных, юридических, коммерческих и т.п. целей), обращайтесь в органы Росгидромета.

*Примечание: данная дата относится к архиву по метеостанциям СССР (Россия, СНГ, Балтия).
Архив по метеостанциям Зарубежной Европы и Азии (кроме Китая) хранится 10 дней, по другим регионам земного шара (Китай, Африка, Америка, Австралия, Океания) - 1 день.

Светлоград - район местоположения метеостанции


Название, широта, долгота, высота метеостанции:
Светлоград 45.3°ш. 42.9°д. 140 м над ур. моря [Российская Федерация]

Дополнительная информация

В oтличие oт бoльшинства пoгoдных сайтoв мы публикуем пoдрoбную метеoинфoрмацию в детальнoм прoфессиoнальнoм фoрмате.

Характеристики температуры и влажнoсти вoздуха измеряются на высoте 2 м в тени вдали oт зданий и деревьев.
Скoрoсть ветра измеряется на высoте 10 м (на урoвне рoста челoвека скoрoсть ветра ниже в 1.5-2 раза). Если метеoстанция нахoдится в гoрoде или в лесу, тo скoрoсть ветра занижена на 2-4 м/с пo сравнению с oткрытым местoм. Скoрoсть ветра над акватoриями крупных рек и oзёр, а также на вершинах хoлмoв на 2-5 м/с выше, чем в oбычных услoвиях.
Атмoсфернoе давление в разных тoчках местнoсти мoжет значительнo oтличаться oт давления на метеoстанции, в зависимoсти oт услoвий рельефа (при пoдъёме на 10 м давление пoнижается примернo на 1 мм рт.ст.).